Location: Arpaise
(41.0333°N, 14.7333°E)
Time: 17:05:19
(UTC+00:00)

Cosmos 2056 Rocket - Pass Details

Date: 05 July 2020
Orbit: 741 x 801 km, 74.0° (Epoch: 10 August)

Event Time Altitude Azimuth Distance (km) Brightness Sun altitude
Rises 23:00:37 0° 332° (NNW) 3,307 7.8 -26.3°
Reaches altitude 10° 23:03:10 10° 324° (NW) 2,378 6.7 -26.3°
Enters shadow 23:07:56 36° 263° (W) 1,240 4.4 -26.3°
